Location: Most
(50.5133°N, 13.6207°E)
Time: 10:49:49
(UTC+02:00)

ISS - Pass Details

Date: 14 April 2017
Orbit: 402 x 409 km, 51.6° (Epoch: 23 May)

Event Time Altitude Azimuth Distance (km) Brightness Sun altitude
Rises 20:23:23 0° 283° (WNW) 2,325 2.5 -4.5°
Reaches altitude 10° 20:25:54 10° 263° (W) 1,464 0.1 -4.9°
Maximum altitude 20:28:12 18° 219° (SW) 1,084 -1.4 -5.2°
Drops below altitude 10° 20:30:29 10° 174° (S) 1,461 -1.3 -5.6°
Enters shadow 20:32:46 - 155° (SSE) 2,234 -0.5 -5.9°
